| time (UTC) | temp F | wind direction | speed MPH | gust MPH | rain 1hr in | rain 24hr in | rain mn in | humidity % | barometer mb |
| 20260503021114 | 48 | 161 | 0.0 | 0.0 | 0.00 | 0.00 | 0.00 | 77 | 1022.3 |
| 20260503020611 | 48 | 161 | 0.0 | 0.0 | 0.00 | 0.00 | 0.00 | 73 | 1022.2 |
| 20260503020108 | 49 | 161 | 0.0 | 0.0 | 0.00 | 0.00 | 0.00 | 72 | 1022.1 |
| 20260503015605 | 50 | 161 | 0.0 | 0.0 | 0.00 | 0.00 | 0.00 | 68 | 1022.0 |
| 20260503015102 | 50 | 161 | 0.0 | 0.0 | 0.00 | 0.00 | 0.00 | 71 | 1022.0 |
| 20260503014557 | 50 | 161 | 0.0 | 0.0 | 0.00 | 0.00 | 0.00 | 70 | 1022.0 |
| 20260503014055 | 50 | 161 | 0.0 | 0.0 | 0.00 | 0.00 | 0.00 | 67 | 1022.0 |
| 20260503013552 | 51 | 161 | 0.0 | 0.0 | 0.00 | 0.00 | 0.00 | 66 | 1022.1 |
| 20260503013050 | 52 | 161 | 0.0 | 0.0 | 0.00 | 0.00 | 0.00 | 66 | 1021.8 |
| 20260503012548 | 53 | 161 | 0.0 | 0.0 | 0.00 | 0.00 | 0.00 | 64 | 1022.0 |
| 20260503012044 | 53 | 161 | 0.0 | 0.0 | 0.00 | 0.00 | 0.00 | 58 | 1021.9 |
| 20260503011540 | 54 | 161 | 0.0 | 0.0 | 0.00 | 0.00 | 0.00 | 61 | 1022.1 |
| 20260503011038 | 55 | 161 | 0.0 | 0.0 | 0.00 | 0.00 | 0.00 | 57 | 1021.7 |
| 20260503010534 | 56 | 161 | 0.0 | 0.0 | 0.00 | 0.00 | 0.00 | 56 | 1021.8 |
| 20260503010032 | 57 | 161 | 0.0 | 0.0 | 0.00 | 0.00 | 0.00 | 55 | 1021.9 |
| 20260503005528 | 58 | 161 | 0.0 | 0.0 | 0.00 | 0.00 | 0.00 | 53 | 1021.8 |
| 20260503005026 | 60 | 161 | 0.0 | 0.0 | 0.00 | 0.00 | 0.00 | 50 | 1021.8 |
| 20260503004522 | 61 | 161 | 0.0 | 0.0 | 0.00 | 0.00 | 0.00 | 47 | 1021.7 |
| 20260503004020 | 62 | 161 | 0.0 | 0.0 | 0.00 | 0.00 | 0.00 | 50 | 1021.8 |
| 20260503003516 | 63 | 161 | 0.0 | 0.0 | 0.00 | 0.00 | 0.00 | 46 | 1021.8 |
| 20260503003014 | 64 | 161 | 0.0 | 0.0 | 0.00 | 0.00 | 0.00 | 45 | 1021.6 |
| 20260503002511 | 64 | 161 | 0.0 | 0.0 | 0.00 | 0.00 | 0.00 | 41 | 1021.8 |
| 20260503002007 | 65 | 161 | 0.0 | 0.0 | 0.00 | 0.00 | 0.00 | 42 | 1021.7 |
| 20260503001504 | 66 | 161 | 0.0 | 0.0 | 0.00 | 0.00 | 0.00 | 40 | 1021.7 |
| 20260503001001 | 66 | 161 | 0.0 | 0.0 | 0.00 | 0.00 | 0.00 | 41 | 1021.6 |
| 20260503000459 | 66 | 161 | 0.0 | 0.0 | 0.00 | 0.00 | 0.00 | 39 | 1021.7 |
| 20260502235955 | 66 | 161 | 0.0 | 0.0 | 0.00 | 0.00 | 0.00 | 41 | 1021.6 |
| 20260502235452 | 65 | 161 | 0.0 | 0.0 | 0.00 | 0.00 | 0.00 | 40 | 1021.4 |
| 20260502234950 | 66 | 161 | 0.0 | 0.0 | 0.00 | 0.00 | 0.00 | 39 | 1021.4 |
| 20260502234446 | 69 | 161 | 0.0 | 0.0 | 0.00 | 0.00 | 0.00 | 37 | 1021.4 |
| 20260502233943 | 69 | 161 | 0.0 | 0.0 | 0.00 | 0.00 | 0.00 | 37 | 1021.7 |
| 20260502233438 | 71 | 161 | 0.0 | 0.0 | 0.00 | 0.00 | 0.00 | 36 | 1021.6 |
| 20260502232936 | 70 | 161 | 0.0 | 0.0 | 0.00 | 0.00 | 0.00 | 33 | 1021.6 |
| 20260502232432 | 69 | 161 | 0.0 | 0.0 | 0.00 | 0.00 | 0.00 | 36 | 1021.8 |
| 20260502231929 | 70 | 161 | 0.0 | 0.0 | 0.00 | 0.00 | 0.00 | 33 | 1021.7 |
| 20260502231426 | 70 | 161 | 0.0 | 0.0 | 0.00 | 0.00 | 0.00 | 35 | 1021.8 |
| 20260502230924 | 71 | 161 | 0.0 | 0.0 | 0.00 | 0.00 | 0.00 | 35 | 1021.9 |
| 20260502230422 | 72 | 161 | 0.0 | 0.0 | 0.00 | 0.00 | 0.00 | 33 | 1021.8 |
| 20260502225920 | 73 | 160 | 0.0 | 0.0 | 0.00 | 0.00 | 0.00 | 30 | 1021.8 |
| 20260502225416 | 74 | 161 | 0.0 | 0.0 | 0.00 | 0.00 | 0.00 | 31 | 1021.9 |
| 20260502224913 | 74 | 161 | 0.0 | 0.0 | 0.00 | 0.00 | 0.00 | 31 | 1021.8 |
| 20260502224408 | 76 | 161 | 0.0 | 0.0 | 0.00 | 0.00 | 0.00 | 32 | 1021.7 |
| 20260502223906 | 77 | 161 | 0.0 | 0.0 | 0.00 | 0.00 | 0.00 | 30 | 1021.9 |
| 20260502223404 | 77 | 161 | 0.0 | 0.0 | 0.00 | 0.00 | 0.00 | 30 | 1021.8 |
| 20260502222902 | 82 | 161 | 0.0 | 0.0 | 0.00 | 0.00 | 0.00 | 26 | 1021.8 |
| 20260502222359 | 81 | 161 | 0.0 | 0.0 | 0.00 | 0.00 | 0.00 | 26 | 1021.7 |
| 20260502221854 | 82 | 161 | 0.0 | 0.0 | 0.00 | 0.00 | 0.00 | 26 | 1021.8 |
| 20260502221351 | 84 | 161 | 0.0 | 0.0 | 0.00 | 0.00 | 0.00 | 26 | 1021.7 |
| 20260502220848 | 86 | 161 | 0.0 | 0.0 | 0.00 | 0.00 | 0.00 | 24 | 1021.7 |
| 20260502220344 | 84 | 161 | 0.0 | 0.0 | 0.00 | 0.00 | 0.00 | 25 | 1021.6 |
| 20260502215841 | 82 | 161 | 0.0 | 0.0 | 0.00 | 0.00 | 0.00 | 25 | 1021.7 |
| 20260502215338 | 83 | 161 | 0.0 | 0.0 | 0.00 | 0.00 | 0.00 | 29 | 1021.7 |
| 20260502214835 | 84 | 161 | 0.0 | 0.0 | 0.00 | 0.00 | 0.00 | 25 | 1021.8 |
| 20260502214331 | 82 | 161 | 0.0 | 0.0 | 0.00 | 0.00 | 0.00 | 26 | 1021.8 |
| 20260502213829 | 84 | 161 | 0.0 | 0.0 | 0.00 | 0.00 | 0.00 | 25 | 1021.8 |
| 20260502213326 | 84 | 161 | 0.0 | 0.0 | 0.00 | 0.00 | 0.00 | 25 | 1022.0 |
| 20260502212825 | 85 | 161 | 0.0 | 0.0 | 0.00 | 0.00 | 0.00 | 31 | 1021.9 |
| 20260502212323 | 81 | 161 | 0.0 | 0.0 | 0.00 | 0.00 | 0.00 | 28 | 1021.8 |
| 20260502211820 | 82 | 161 | 0.0 | 0.0 | 0.00 | 0.00 | 0.00 | 26 | 1021.8 |
| 20260502211315 | 81 | 161 | 0.0 | 0.0 | 0.00 | 0.00 | 0.00 | 27 | 1021.7 |
| 20260502210808 | 83 | 161 | 0.0 | 0.0 | 0.00 | 0.00 | 0.00 | 26 | 1021.8 |
| 20260502210305 | 87 | 161 | 0.0 | 0.0 | 0.00 | 0.00 | 0.00 | 27 | 1021.9 |
| 20260502205802 | 87 | 161 | 0.0 | 0.0 | 0.00 | 0.00 | 0.00 | 26 | 1021.9 |
| 20260502205257 | 85 | 161 | 0.0 | 0.0 | 0.00 | 0.00 | 0.00 | 27 | 1021.9 |
| 20260502204755 | 88 | 160 | 0.0 | 0.0 | 0.00 | 0.00 | 0.00 | 25 | 1022.0 |
| 20260502204252 | 87 | 160 | 0.0 | 0.0 | 0.00 | 0.00 | 0.00 | 26 | 1022.0 |
| 20260502203749 | 85 | 161 | 0.0 | 0.0 | 0.00 | 0.00 | 0.00 | 24 | 1022.1 |
| 20260502203247 | 87 | 160 | 0.0 | 0.0 | 0.00 | 0.00 | 0.00 | 25 | 1022.1 |
| 20260502202741 | 88 | 160 | 0.0 | 0.0 | 0.00 | 0.00 | 0.00 | 27 | 1022.1 |
| 20260502202240 | 87 | 161 | 0.0 | 0.0 | 0.00 | 0.00 | 0.00 | 26 | 1022.2 |
| 20260502201737 | 85 | 161 | 0.0 | 0.0 | 0.00 | 0.00 | 0.00 | 28 | 1022.3 |
| 20260502201233 | 85 | 160 | 0.0 | 0.0 | 0.00 | 0.00 | 0.00 | 25 | 1022.2 |
| 20260502200729 | 81 | 161 | 0.0 | 0.0 | 0.00 | 0.00 | 0.00 | 29 | 1022.2 |
| 20260502200226 | 84 | 161 | 0.0 | 0.0 | 0.00 | 0.00 | 0.00 | 27 | 1022.4 |
| 20260502195724 | 87 | 160 | 0.0 | 0.0 | 0.00 | 0.00 | 0.00 | 26 | 1022.5 |
| 20260502195221 | 84 | 160 | 0.0 | 0.0 | 0.00 | 0.00 | 0.00 | 26 | 1022.4 |
| 20260502194717 | 86 | 160 | 0.0 | 0.0 | 0.00 | 0.00 | 0.00 | 30 | 1022.5 |
| 20260502194214 | 86 | 160 | 0.0 | 0.0 | 0.00 | 0.00 | 0.00 | 24 | 1022.5 |
| 20260502193710 | 84 | 160 | 0.0 | 0.0 | 0.00 | 0.00 | 0.00 | 28 | 1022.5 |
| 20260502193208 | 82 | 160 | 0.0 | 0.0 | 0.00 | 0.00 | 0.00 | 27 | 1022.6 |
| 20260502192702 | 80 | 161 | 0.0 | 0.0 | 0.00 | 0.00 | 0.00 | 27 | 1022.5 |
| 20260502192200 | 80 | 160 | 0.0 | 1.0 | 0.00 | 0.00 | 0.00 | 28 | 1022.6 |
| 20260502191657 | 83 | 161 | 0.0 | 1.0 | 0.00 | 0.00 | 0.00 | 26 | 1022.5 |
| 20260502191154 | 80 | 160 | 0.0 | 0.0 | 0.00 | 0.00 | 0.00 | 27 | 1022.6 |
| 20260502190652 | 76 | 161 | 0.0 | 0.0 | 0.00 | 0.00 | 0.00 | 30 | 1022.5 |
| 20260502190150 | 76 | 160 | 0.0 | 0.0 | 0.00 | 0.00 | 0.00 | 33 | 1022.5 |
| 20260502185643 | 79 | 161 | 0.0 | 0.0 | 0.00 | 0.00 | 0.00 | 30 | 1022.7 |
| 20260502185141 | 79 | 160 | 0.0 | 2.0 | 0.00 | 0.00 | 0.00 | 27 | 1022.8 |
| 20260502184637 | 80 | 160 | 0.0 | 0.0 | 0.00 | 0.00 | 0.00 | 26 | 1022.7 |
| 20260502184133 | 79 | 160 | 0.0 | 0.0 | 0.00 | 0.00 | 0.00 | 28 | 1022.6 |
| 20260502183630 | 78 | 161 | 0.0 | 0.0 | 0.00 | 0.00 | 0.00 | 35 | 1022.7 |
| 20260502183126 | 81 | 160 | 0.0 | 0.0 | 0.00 | 0.00 | 0.00 | 30 | 1022.8 |
| 20260502182621 | 80 | 160 | 0.0 | 0.0 | 0.00 | 0.00 | 0.00 | 30 | 1022.8 |
| 20260502182116 | 79 | 161 | 0.0 | 0.0 | 0.00 | 0.00 | 0.00 | 32 | 1022.9 |
| 20260502181614 | 77 | 160 | 0.0 | 0.0 | 0.00 | 0.00 | 0.00 | 30 | 1022.8 |
| 20260502181113 | 75 | 161 | 0.0 | 0.0 | 0.00 | 0.00 | 0.00 | 32 | 1022.8 |
| 20260502180610 | 77 | 160 | 0.0 | 0.0 | 0.00 | 0.00 | 0.00 | 30 | 1022.9 |
| 20260502180107 | 80 | 161 | 0.0 | 0.0 | 0.00 | 0.00 | 0.00 | 31 | 1022.9 |
| 20260502164013 | 70 | 160 | 0.0 | 0.0 | 0.00 | 0.00 | 0.00 | 42 | 1023.2 |
| 20260502163509 | 71 | 160 | 0.0 | 0.0 | 0.00 | 0.00 | 0.00 | 40 | 1023.2 |
| 20260502163006 | 72 | 160 | 0.0 | 0.0 | 0.00 | 0.00 | 0.00 | 41 | 1023.2 |
| 20260502162503 | 73 | 160 | 0.0 | 0.0 | 0.00 | 0.00 | 0.00 | 41 | 1023.1 |
| 20260502162000 | 72 | 160 | 0.0 | 0.0 | 0.00 | 0.00 | 0.00 | 44 | 1023.2 |
| 20260502161456 | 69 | 160 | 0.0 | 0.0 | 0.00 | 0.00 | 0.00 | 45 | 1023.3 |
| 20260502160955 | 70 | 160 | 0.0 | 0.0 | 0.00 | 0.00 | 0.00 | 41 | 1023.2 |
| 20260502160452 | 68 | 160 | 0.0 | 0.0 | 0.00 | 0.00 | 0.00 | 47 | 1023.2 |
| 20260502151935 | 63 | 160 | 0.0 | 0.0 | 0.00 | 0.00 | 0.00 | 53 | 1023.1 |
| 20260502151431 | 62 | 160 | 0.0 | 0.0 | 0.00 | 0.00 | 0.00 | 57 | 1023.0 |
| 20260502150929 | 62 | 160 | 0.0 | 0.0 | 0.00 | 0.00 | 0.00 | 58 | 1023.1 |
| 20260502150426 | 62 | 160 | 0.0 | 0.0 | 0.00 | 0.00 | 0.00 | 56 | 1023.0 |
| 20260502130312 | 48 | 161 | 0.0 | 0.0 | 0.00 | 0.00 | 0.00 | 81 | 1022.2 |
| 20260502123757 | 45 | 161 | 0.0 | 0.0 | 0.00 | 0.00 | 0.00 | 90 | 1022.2 |
| 20260502123254 | 44 | 161 | 0.0 | 0.0 | 0.00 | 0.00 | 0.00 | 90 | 1022.1 |
| 20260502122750 | 43 | 161 | 0.0 | 0.0 | 0.00 | 0.00 | 0.00 | 93 | 1022.1 |
| 20260502122246 | 42 | 161 | 0.0 | 0.0 | 0.00 | 0.00 | 0.00 | 94 | 1021.9 |
| 20260502121745 | 41 | 161 | 0.0 | 0.0 | 0.00 | 0.00 | 0.00 | 96 | 1022.0 |
| 20260502121243 | 40 | 161 | 0.0 | 0.0 | 0.00 | 0.00 | 0.00 | 98 | 1021.9 |
| 20260502120739 | 39 | 161 | 0.0 | 0.0 | 0.00 | 0.00 | 0.00 | 98 | 1021.7 |
| 20260502120236 | 39 | 161 | 0.0 | 0.0 | 0.00 | 0.00 | 0.00 | 98 | 1021.6 |
| 20260502115734 | 38 | 161 | 0.0 | 0.0 | 0.00 | 0.00 | 0.00 | 97 | 1021.4 |
| 20260502115230 | 38 | 160 | 0.0 | 0.0 | 0.00 | 0.00 | 0.00 | 97 | 1021.7 |
| 20260502114726 | 38 | 160 | 0.0 | 0.0 | 0.00 | 0.00 | 0.00 | 97 | 1021.4 |
| 20260502114224 | 39 | 160 | 0.0 | 0.0 | 0.00 | 0.00 | 0.00 | 97 | 1021.3 |
| 20260502113720 | 39 | 160 | 0.0 | 0.0 | 0.00 | 0.00 | 0.00 | 96 | 1021.4 |
| 20260502113218 | 39 | 160 | 0.0 | 0.0 | 0.00 | 0.00 | 0.00 | 96 | 1021.1 |
| 20260502112716 | 40 | 160 | 0.0 | 0.0 | 0.00 | 0.00 | 0.00 | 97 | 1021.2 |
| 20260502112214 | 39 | 160 | 0.0 | 0.0 | 0.00 | 0.00 | 0.00 | 97 | 1021.1 |
| 20260502111710 | 40 | 160 | 0.0 | 0.0 | 0.00 | 0.00 | 0.00 | 97 | 1021.4 |
| 20260502111208 | 40 | 160 | 0.0 | 0.0 | 0.00 | 0.00 | 0.00 | 97 | 1021.6 |
| 20260502110706 | 39 | 160 | 0.0 | 0.0 | 0.00 | 0.00 | 0.00 | 98 | 1021.2 |
| 20260502110203 | 39 | 160 | 0.0 | 0.0 | 0.00 | 0.00 | 0.00 | 97 | 1021.2 |
| 20260502105700 | 39 | 160 | 0.0 | 0.0 | 0.00 | 0.00 | 0.00 | 97 | 1021.1 |
| 20260502105157 | 39 | 160 | 0.0 | 0.0 | 0.00 | 0.00 | 0.00 | 97 | 1021.3 |
| 20260502104654 | 39 | 160 | 0.0 | 0.0 | 0.00 | 0.00 | 0.00 | 98 | 1021.0 |
| 20260502104152 | 39 | 160 | 0.0 | 0.0 | 0.00 | 0.00 | 0.00 | 98 | 1021.2 |
| 20260502103649 | 38 | 160 | 0.0 | 0.0 | 0.00 | 0.00 | 0.00 | 98 | 1021.1 |
| 20260502103147 | 38 | 160 | 0.0 | 0.0 | 0.00 | 0.00 | 0.00 | 98 | 1020.9 |
| 20260502102644 | 38 | 160 | 0.0 | 0.0 | 0.00 | 0.00 | 0.00 | 97 | 1020.9 |
| 20260502102140 | 38 | 160 | 0.0 | 0.0 | 0.00 | 0.00 | 0.00 | 97 | 1021.0 |
| 20260502101638 | 37 | 160 | 0.0 | 0.0 | 0.00 | 0.00 | 0.00 | 97 | 1020.7 |
| 20260502101137 | 37 | 160 | 0.0 | 0.0 | 0.00 | 0.00 | 0.00 | 96 | 1020.8 |
| 20260502100634 | 38 | 160 | 0.0 | 0.0 | 0.00 | 0.00 | 0.00 | 96 | 1020.7 |
| 20260502100133 | 38 | 161 | 0.0 | 0.0 | 0.00 | 0.00 | 0.00 | 96 | 1020.5 |
| 20260502091107 | 40 | 161 | 0.0 | 0.0 | 0.00 | 0.00 | 0.00 | 91 | 1020.4 |
| 20260502090604 | 40 | 161 | 0.0 | 0.0 | 0.00 | 0.00 | 0.00 | 90 | 1020.3 |
| 20260502071458 | 39 | 161 | 0.0 | 0.0 | 0.00 | 0.00 | 0.00 | 95 | 1020.3 |
| 20260502070956 | 39 | 161 | 0.0 | 0.0 | 0.00 | 0.00 | 0.00 | 94 | 1020.4 |
| 20260502070454 | 39 | 161 | 0.0 | 0.0 | 0.00 | 0.00 | 0.00 | 94 | 1020.2 |
| 20260502065952 | 39 | 161 | 0.0 | 0.0 | 0.00 | 0.00 | 0.00 | 94 | 1020.2 |
| 20260502065450 | 39 | 161 | 0.0 | 0.0 | 0.00 | 0.00 | 0.00 | 93 | 1020.3 |
| 20260502064948 | 39 | 161 | 0.0 | 0.0 | 0.00 | 0.00 | 0.00 | 92 | 1020.2 |
| 20260502064445 | 40 | 161 | 0.0 | 0.0 | 0.00 | 0.00 | 0.00 | 92 | 1020.5 |
| 20260502063942 | 40 | 161 | 0.0 | 0.0 | 0.00 | 0.00 | 0.00 | 92 | 1020.4 |
| 20260502063440 | 40 | 161 | 0.0 | 0.0 | 0.00 | 0.00 | 0.00 | 92 | 1020.3 |
| 20260502062938 | 40 | 161 | 0.0 | 0.0 | 0.00 | 0.00 | 0.00 | 93 | 1020.4 |
| 20260502062434 | 40 | 161 | 0.0 | 0.0 | 0.00 | 0.00 | 0.00 | 94 | 1020.4 |
| 20260502061933 | 40 | 161 | 0.0 | 0.0 | 0.00 | 0.00 | 0.00 | 93 | 1020.5 |
| 20260502061431 | 40 | 161 | 0.0 | 0.0 | 0.00 | 0.00 | 0.00 | 93 | 1020.5 |
| 20260502060927 | 40 | 161 | 0.0 | 0.0 | 0.00 | 0.00 | 0.00 | 92 | 1020.5 |
| 20260502060422 | 40 | 161 | 0.0 | 0.0 | 0.00 | 0.00 | 0.00 | 92 | 1020.5 |
| 20260502055919 | 41 | 161 | 0.0 | 0.0 | 0.00 | 0.00 | 0.00 | 92 | 1020.8 |
| 20260502055417 | 41 | 161 | 0.0 | 0.0 | 0.00 | 0.00 | 0.00 | 93 | 1020.6 |
| 20260502054912 | 41 | 161 | 0.0 | 0.0 | 0.00 | 0.00 | 0.00 | 91 | 1020.6 |
| 20260502054409 | 42 | 161 | 0.0 | 0.0 | 0.00 | 0.00 | 0.00 | 91 | 1020.7 |
| 20260502053906 | 42 | 161 | 0.0 | 0.0 | 0.00 | 0.00 | 0.00 | 89 | 1020.6 |
| 20260502053405 | 42 | 161 | 0.0 | 0.0 | 0.00 | 0.00 | 0.00 | 89 | 1020.7 |
| 20260502052901 | 42 | 161 | 0.0 | 0.0 | 0.00 | 0.00 | 0.00 | 90 | 1020.8 |
| 20260502052359 | 43 | 161 | 0.0 | 0.0 | 0.00 | 0.00 | 0.00 | 90 | 1020.7 |
| 20260502051856 | 43 | 161 | 0.0 | 0.0 | 0.00 | 0.00 | 0.00 | 89 | 1020.6 |
| 20260502051355 | 43 | 161 | 0.0 | 0.0 | 0.00 | 0.00 | 0.00 | 90 | 1020.6 |
| 20260502050851 | 43 | 161 | 0.0 | 0.0 | 0.00 | 0.00 | 0.00 | 88 | 1020.5 |
| 20260502050347 | 43 | 161 | 0.0 | 0.0 | 0.00 | 0.00 | 0.00 | 87 | 1020.7 |
| 20260502045844 | 44 | 161 | 0.0 | 0.0 | 0.00 | 0.00 | 0.00 | 84 | 1020.4 |
| 20260502045341 | 44 | 161 | 0.0 | 0.0 | 0.00 | 0.00 | 0.00 | 85 | 1020.4 |
| 20260502044838 | 44 | 161 | 0.0 | 0.0 | 0.00 | 0.00 | 0.00 | 85 | 1020.6 |
| 20260502044334 | 44 | 161 | 0.0 | 0.0 | 0.00 | 0.00 | 0.00 | 87 | 1020.5 |
| 20260502043831 | 43 | 161 | 0.0 | 0.0 | 0.00 | 0.00 | 0.00 | 87 | 1020.7 |
| 20260502043329 | 42 | 161 | 0.0 | 0.0 | 0.00 | 0.00 | 0.00 | 85 | 1020.7 |
| 20260502042829 | 42 | 161 | 0.0 | 0.0 | 0.00 | 0.00 | 0.00 | 89 | 1020.5 |
| 20260502042326 | 42 | 161 | 0.0 | 0.0 | 0.00 | 0.00 | 0.00 | 89 | 1020.5 |
| 20260502041823 | 42 | 161 | 0.0 | 0.0 | 0.00 | 0.00 | 0.00 | 88 | 1020.7 |
| 20260502041320 | 43 | 161 | 0.0 | 0.0 | 0.00 | 0.00 | 0.00 | 89 | 1020.7 |
| 20260502040818 | 42 | 161 | 0.0 | 0.0 | 0.00 | 0.00 | 0.00 | 84 | 1020.7 |
| 20260502040315 | 43 | 161 | 0.0 | 0.0 | 0.00 | 0.00 | 0.00 | 83 | 1020.8 |
| 20260502035810 | 43 | 161 | 0.0 | 0.0 | 0.00 | 0.00 | 0.00 | 84 | 1020.8 |
| 20260502035307 | 44 | 161 | 0.0 | 0.0 | 0.00 | 0.00 | 0.00 | 84 | 1020.8 |
| 20260502034805 | 45 | 161 | 0.0 | 0.0 | 0.00 | 0.00 | 0.00 | 83 | 1020.7 |
| 20260502034303 | 45 | 161 | 0.0 | 0.0 | 0.00 | 0.00 | 0.00 | 84 | 1021.0 |
| 20260502033801 | 46 | 161 | 0.0 | 0.0 | 0.00 | 0.00 | 0.00 | 75 | 1020.9 |
| 20260502033258 | 46 | 161 | 0.0 | 0.0 | 0.00 | 0.00 | 0.00 | 77 | 1020.9 |
| 20260502032755 | 45 | 161 | 0.0 | 0.0 | 0.00 | 0.00 | 0.00 | 79 | 1020.9 |
| 20260502032251 | 45 | 161 | 0.0 | 0.0 | 0.00 | 0.00 | 0.00 | 82 | 1021.0 |
| 20260502031749 | 45 | 161 | 0.0 | 0.0 | 0.00 | 0.00 | 0.00 | 83 | 1020.9 |
| 20260502031247 | 45 | 161 | 0.0 | 0.0 | 0.00 | 0.00 | 0.00 | 81 | 1020.9 |
| 20260502030745 | 46 | 161 | 0.0 | 0.0 | 0.00 | 0.00 | 0.00 | 80 | 1020.9 |
| 20260502030243 | 46 | 161 | 0.0 | 0.0 | 0.00 | 0.00 | 0.00 | 79 | 1020.9 |
| 20260502025740 | 46 | 161 | 0.0 | 0.0 | 0.00 | 0.00 | 0.00 | 78 | 1021.0 |
| 20260502025238 | 46 | 161 | 0.0 | 0.0 | 0.00 | 0.00 | 0.00 | 77 | 1020.9 |
| 20260502024735 | 46 | 161 | 0.0 | 0.0 | 0.00 | 0.00 | 0.00 | 78 | 1020.9 |
| 20260502024233 | 46 | 161 | 0.0 | 0.0 | 0.00 | 0.00 | 0.00 | 78 | 1020.9 |
| 20260502023731 | 47 | 161 | 0.0 | 0.0 | 0.00 | 0.00 | 0.00 | 77 | 1021.0 |
| 20260502023228 | 47 | 161 | 0.0 | 0.0 | 0.00 | 0.00 | 0.00 | 76 | 1020.9 |
| 20260502022726 | 47 | 161 | 0.0 | 0.0 | 0.00 | 0.00 | 0.00 | 75 | 1020.9 |
| 20260502022222 | 47 | 161 | 0.0 | 0.0 | 0.00 | 0.00 | 0.00 | 77 | 1020.7 |
| 20260502021719 | 47 | 161 | 0.0 | 0.0 | 0.00 | 0.00 | 0.00 | 77 | 1020.7 |